SPACEBEE-6

Last updated on Thu Nov 21 2024 00:03:40 GMT+0000 (Coordinated Universal Time)

1 43818U 18099BN 24325.16270303 .00200901 00000+0 29716-2 0 9997 2 43818 97.5149 37.3335 0001838 90.3040 269.8424 15.54593429326824
UTC large
Height (km)
Speed (km/s)
/
Latitude / Longitude
Inclination (degrees)
Orbital Period (minutes)
Azimuth
Elevation
Range (km)
Doppler Factor

Next 0 passes for location: London (51.5072 / 0.1276)

Sorry there are no passes over London.